FW3072 Weather Reports


Display with metric or nautical units.
time (UTC)temp
F
wind
direction
speed
MPH
gust
MPH
rain 1hr
in
rain 24hr
in
rain mn
in
humidity
%
barometer
mb
20260502170201 45 327 4.0 10.0 0.00 0.02 0.00 63 1015.4
20260502164204 45 293 9.0 13.0 0.00 0.03 0.00 58 1015.5
20260502163202 45 296 8.0 13.0 0.00 0.03 0.00 59 1015.5
20260502162202 45 296 6.0 14.0 0.00 0.04 0.00 61 1015.5
20260502161203 44 313 4.0 11.0 0.00 0.04 0.00 62 1015.6
20260502160225 44 283 7.0 14.0 0.00 0.04 0.00 60 1015.6
20260502152202 45 310 6.0 13.0 0.00 0.05 0.00 56 1015.5
20260502151203 45 319 4.0 16.0 0.00 0.05 0.00 58 1015.5
20260502150223 44 303 8.0 14.0 0.00 0.05 0.00 58 1015.4
20260502130203 40 301 6.0 10.0 0.00 0.05 0.00 71 1016.1
20260502123203 39 278 5.0 12.0 0.00 0.05 0.00 73 1016.2
20260502122202 39 307 6.0 10.0 0.00 0.05 0.00 74 1016.2
20260502121202 38 290 5.0 11.0 0.00 0.05 0.00 78 1016.1
20260502120204 38 311 4.0 9.0 0.00 0.05 0.00 80 1016.0
20260502115202 37 269 2.0 4.0 0.00 0.05 0.00 83 1016.2
20260502114203 37 261 0.0 2.0 0.00 0.05 0.00 85 1016.1
20260502113203 36 260 1.0 3.0 0.00 0.05 0.00 86 1016.1
20260502112223 35 287 0.0 3.0 0.00 0.05 0.00 87 1016.1
20260502111205 34 287 1.0 3.0 0.00 0.05 0.00 88 1016.1
20260502110202 33 290 0.0 7.0 0.00 0.05 0.00 87 1015.9
20260502105202 33 299 1.0 3.0 0.00 0.05 0.00 87 1015.8
20260502104202 33 294 1.0 4.0 0.00 0.05 0.00 88 1015.7
20260502103202 32 315 2.0 4.0 0.00 0.05 0.00 88 1015.7
20260502102202 32 300 2.0 5.0 0.00 0.05 0.00 88 1015.5
20260502101202 32 305 1.0 5.0 0.00 0.05 0.00 88 1015.5
20260502100225 31 281 2.0 5.0 0.00 0.05 0.00 88 1015.3
20260502091203 31 289 0.0 0.0 0.00 0.05 0.00 86 1015.3
20260502090202 31 289 0.0 0.0 0.00 0.05 0.00 86 1015.2
20260502071202 34 289 0.0 3.0 0.00 0.05 0.00 83 1014.8
20260502070203 34 288 0.0 3.0 0.00 0.05 0.00 83 1014.9
20260502065202 34 285 1.0 4.0 0.00 0.05 0.00 82 1015.0
20260502064202 35 304 1.0 3.0 0.00 0.05 0.00 81 1014.9
20260502063204 35 304 0.0 1.0 0.00 0.05 0.00 81 1015.0
20260502062202 36 303 1.0 5.0 0.00 0.05 0.00 80 1014.9
20260502061203 36 293 2.0 3.0 0.00 0.05 0.00 80 1014.9
20260502060202 36 293 2.0 4.0 0.00 0.05 0.00 79 1015.0
20260502055202 36 291 1.0 5.0 0.00 0.05 0.00 79 1015.0
20260502054202 36 299 2.0 4.0 0.00 0.05 0.00 79 1015.1
20260502053202 37 296 1.0 5.0 0.00 0.05 0.00 78 1015.1
20260502052224 37 296 1.0 7.0 0.00 0.05 0.00 77 1015.1
20260502051203 38 292 3.0 7.0 0.00 0.05 0.00 77 1014.9
20260502050223 38 295 3.0 7.0 0.00 0.05 0.00 76 1014.9
20260502045203 38 310 4.0 8.0 0.00 0.05 0.00 75 1014.7
20260502044223 39 310 3.0 8.0 0.00 0.05 0.00 74 1014.6
20260502042203 40 302 8.0 12.0 0.00 0.05 0.00 73 1014.2
20260502041202 40 314 5.0 12.0 0.00 0.05 0.00 73 1014.2
20260502040202 40 307 5.0 13.0 0.00 0.05 0.00 74 1014.3
20260502035202 41 310 4.0 8.0 0.00 0.05 0.05 79 1014.2
20260502034202 41 302 1.0 5.0 0.00 0.05 0.05 81 1014.1
20260502033202 41 289 2.0 5.0 0.00 0.05 0.05 81 1014.1
20260502032203 42 295 1.0 7.0 0.00 0.05 0.05 82 1014.0
20260502031223 42 295 2.0 8.0 0.00 0.05 0.05 82 1014.0
20260502030202 42 241 1.0 3.0 0.00 0.05 0.05 82 1014.2
20260502025202 42 297 1.0 2.0 0.00 0.05 0.05 82 1014.2
20260502024204 42 297 0.0 10.0 0.00 0.05 0.05 82 1014.1
20260502023204 42 248 2.0 3.0 0.00 0.05 0.05 82 1014.0
20260502021202 42 279 1.0 3.0 0.00 0.05 0.05 81 1014.0
20260502020202 42 279 1.0 4.0 0.00 0.05 0.05 81 1014.1
20260502014202 42 280 3.0 4.0 0.00 0.05 0.05 81 1013.8
20260502013205 42 266 1.0 4.0 0.00 0.05 0.05 81 1013.7
20260502012202 42 285 2.0 5.0 0.00 0.05 0.05 81 1013.7
20260502011202 42 235 1.0 4.0 0.00 0.05 0.05 82 1013.6
20260502010202 42 290 0.0 5.0 0.00 0.05 0.05 82 1013.5
20260502005202 43 270 2.0 8.0 0.00 0.05 0.05 81 1013.4
20260502004203 43 273 1.0 4.0 0.00 0.05 0.05 81 1013.3
20260502003202 43 277 2.0 5.0 0.00 0.05 0.05 81 1013.1
20260502002201 43 303 1.0 2.0 0.00 0.05 0.05 80 1012.9
20260502001202 44 301 0.0 3.0 0.00 0.05 0.05 79 1012.7
20260502000204 44 283 0.0 4.0 0.00 0.05 0.05 78 1012.7
20260501235203 44 224 0.0 4.0 0.00 0.05 0.05 78 1012.6
20260501234223 45 309 2.0 7.0 0.00 0.06 0.05 77 1012.5
20260501233202 45 283 3.0 7.0 0.00 0.08 0.05 77 1012.4
20260501232203 46 291 2.0 4.0 0.00 0.08 0.05 76 1012.4
20260501231203 46 304 2.0 7.0 0.00 0.08 0.05 75 1012.3
20260501230202 47 251 2.0 7.0 0.00 0.08 0.05 74 1012.2
20260501225203 47 263 2.0 4.0 0.00 0.08 0.05 73 1012.2
20260501224224 47 283 1.0 4.0 0.00 0.08 0.05 73 1012.1
20260501222204 47 241 0.0 4.0 0.00 0.08 0.05 73 1012.1
20260501221202 47 279 1.0 3.0 0.00 0.08 0.05 73 1012.1
20260501220202 47 310 0.0 4.0 0.00 0.08 0.05 72 1012.0
20260501215246 47 321 1.0 3.0 0.00 0.08 0.05 73 1012.0
20260501214207 47 280 3.0 4.0 0.00 0.08 0.05 74 1012.0
20260501213202 47 187 1.0 4.0 0.00 0.08 0.05 78 1012.0
20260501212202 46 169 1.0 4.0 0.00 0.08 0.05 79 1012.0
20260501211204 46 169 1.0 2.0 0.00 0.08 0.05 80 1012.0
20260501210202 46 169 0.0 0.0 0.00 0.08 0.05 81 1011.9
20260501205203 45 169 0.0 0.0 0.00 0.08 0.05 82 1011.9
20260501204202 45 169 0.0 2.0 0.00 0.08 0.05 83 1012.0
20260501203205 45 169 0.0 5.0 0.00 0.08 0.05 84 1011.9
20260501202224 45 186 1.0 4.0 0.00 0.08 0.05 85 1011.9
20260501201223 44 168 1.0 6.0 0.00 0.08 0.05 86 1011.9
20260501200224 44 159 2.0 6.0 0.00 0.08 0.05 86 1012.0
20260501195223 44 180 0.0 4.0 0.00 0.08 0.05 87 1012.1
20260501194224 44 180 2.0 4.0 0.00 0.08 0.05 86 1012.2
20260501193202 44 172 3.0 5.0 0.00 0.08 0.05 88 1012.3
20260501192203 43 292 1.0 3.0 0.00 0.08 0.05 87 1012.5
20260501191227 43 347 0.0 2.0 0.00 0.08 0.05 88 1012.6
20260501190202 42 346 1.0 3.0 0.00 0.08 0.05 88 1012.7
20260501185204 42 348 0.0 3.0 0.01 0.08 0.05 88 1012.9
20260501184204 42 324 3.0 4.0 0.00 0.07 0.04 88 1013.0
20260501183202 42 315 1.0 4.0 0.00 0.07 0.04 88 1013.2
20260501182203 41 315 0.0 2.0 0.00 0.07 0.04 88 1013.1
20260501181204 41 315 0.0 2.0 0.00 0.07 0.04 88 1013.1
20260501180203 41 315 1.0 4.0 0.00 0.07 0.04 88 1013.2